Time,TemperatureF,DewpointF,PressureIn,WindDirection,WindDirectionDegrees,WindSpeedMPH,WindSpeedGustMPH,Humidity,HourlyPrecipIn,Conditions,Clouds,dailyrainin,SoftwareType,DateUTC
2013-09-14 00:00:00,46.0,44.1,30.05,ENE,74,0.0,0.0,93,0.00,CLR,,0.00,WeatherDisplay:10.37,2013-09-14 05:00:00,
2013-09-14 00:05:00,46.0,44.1,30.05,ENE,74,0.0,0.0,93,0.00,CLR,,0.00,WeatherDisplay:10.37,2013-09-14 05:05:00,
2013-09-14 00:10:00,45.8,43.9,30.05,ENE,74,0.0,0.0,93,0.00,CLR,,0.00,WeatherDisplay:10.37,2013-09-14 05:10:00,
2013-09-14 00:15:00,45.7,44.1,30.05,ENE,74,0.0,0.0,94,0.00,CLR,,0.00,WeatherDisplay:10.37,2013-09-14 05:15:00,
2013-09-14 00:20:00,45.7,44.1,30.05,ENE,74,0.0,0.0,94,0.00,CLR,,0.00,WeatherDisplay:10.37,2013-09-14 05:20:00,
2013-09-14 00:25:00,45.5,43.9,30.05,ENE,74,0.0,0.0,94,0.00,CLR,,0.00,WeatherDisplay:10.37,2013-09-14 05:25:00,
2013-09-14 00:30:00,45.5,43.9,30.05,ENE,74,0.0,0.0,94,0.00,CLR,,0.00,WeatherDisplay:10.37,2013-09-14 05:30:00,
2013-09-14 00:35:00,45.4,43.8,30.04,ENE,74,0.0,0.0,94,0.00,CLR,,0.00,WeatherDisplay:10.37,2013-09-14 05:35:00,
2013-09-14 00:40:00,45.4,44.1,30.04,ENE,74,0.0,0.0,95,0.00,CLR,,0.00,WeatherDisplay:10.37,2013-09-14 05:40:00,
2013-09-14 00:45:00,45.4,44.1,30.04,ENE,74,0.0,0.0,95,0.00,CLR,,0.00,WeatherDisplay:10.37,2013-09-14 05:45:00,
2013-09-14 00:50:00,45.5,44.4,30.04,ENE,74,0.0,0.0,96,0.00,CLR,,0.00,WeatherDisplay:10.37,2013-09-14 05:50:00,
2013-09-14 00:55:00,45.7,44.6,30.04,ENE,74,0.0,0.0,96,0.00,CLR,,0.00,WeatherDisplay:10.37,2013-09-14 05:55:00,
2013-09-14 01:00:00,45.8,44.7,30.04,ENE,75,0.0,0.0,96,0.00,CLR,,0.00,WeatherDisplay:10.37,2013-09-14 06:00:00,
2013-09-14 01:05:00,45.8,44.7,30.05,ENE,74,0.0,0.0,96,0.00,CLR,,0.00,WeatherDisplay:10.37,2013-09-14 06:05:00,
2013-09-14 01:10:00,45.8,44.7,30.05,ENE,74,0.0,0.0,96,0.00,CLR,,0.00,WeatherDisplay:10.37,2013-09-14 06:10:00,
2013-09-14 01:15:00,45.8,45.0,30.05,ENE,74,0.0,0.0,97,0.00,CLR,,0.00,WeatherDisplay:10.37,2013-09-14 06:15:00,
2013-09-14 01:20:00,45.8,45.0,30.04,ENE,74,0.0,0.0,97,0.00,CLR,,0.00,WeatherDisplay:10.37,2013-09-14 06:20:00,
2013-09-14 01:25:00,46.0,45.2,30.04,ENE,75,0.0,0.0,97,0.00,CLR,,0.00,WeatherDisplay:10.37,2013-09-14 06:25:00,
2013-09-14 01:30:00,46.2,45.4,30.04,ENE,75,0.0,0.0,97,0.00,CLR,,0.00,WeatherDisplay:10.37,2013-09-14 06:30:00,
2013-09-14 01:35:00,46.2,45.4,30.04,ENE,74,0.0,0.0,97,0.00,CLR,,0.00,WeatherDisplay:10.37,2013-09-14 06:35:00,
2013-09-14 01:40:00,46.4,45.8,30.04,ENE,74,0.0,0.0,98,0.00,CLR,,0.00,WeatherDisplay:10.37,2013-09-14 06:40:00,
2013-09-14 01:45:00,46.4,45.9,30.04,ENE,74,0.0,0.0,98,0.00,CLR,,0.00,WeatherDisplay:10.37,2013-09-14 06:45:00,
2013-09-14 01:50:00,46.4,45.9,30.05,ENE,74,0.0,0.0,98,0.00,CLR,,0.00,WeatherDisplay:10.37,2013-09-14 06:50:00,
2013-09-14 01:55:00,46.4,45.9,30.05,ENE,74,0.0,0.0,98,0.00,CLR,,0.00,WeatherDisplay:10.37,2013-09-14 06:55:00,
2013-09-14 02:00:00,46.4,45.9,30.05,ENE,74,0.0,0.0,98,0.00,CLR,,0.00,WeatherDisplay:10.37,2013-09-14 07:00:00,
2013-09-14 02:05:00,46.4,45.9,30.04,ENE,74,0.0,0.0,98,0.00,CLR,,0.00,WeatherDisplay:10.37,2013-09-14 07:05:00,
2013-09-14 02:10:00,46.2,45.7,30.04,ENE,74,0.0,0.0,98,0.00,CLR,,0.00,WeatherDisplay:10.37,2013-09-14 07:10:00,
2013-09-14 02:15:00,46.1,45.6,30.04,ENE,74,0.0,0.0,98,0.00,CLR,,0.00,WeatherDisplay:10.37,2013-09-14 07:15:00,
2013-09-14 02:20:00,46.0,45.5,30.04,ENE,74,0.0,0.0,98,0.00,CLR,,0.00,WeatherDisplay:10.37,2013-09-14 07:20:00,
2013-09-14 02:25:00,46.0,45.5,30.04,ENE,74,0.0,0.0,98,0.00,CLR,,0.00,WeatherDisplay:10.37,2013-09-14 07:25:00,
2013-09-14 02:30:00,46.0,45.5,30.04,ENE,74,0.0,1.0,98,0.00,CLR,,0.00,WeatherDisplay:10.37,2013-09-14 07:30:00,
2013-09-14 02:35:00,46.1,45.5,30.05,ENE,74,0.0,0.0,98,0.00,CLR,,0.00,WeatherDisplay:10.37,2013-09-14 07:35:00,
2013-09-14 02:40:00,46.1,45.6,30.05,ENE,74,0.0,0.0,98,0.00,CLR,,0.00,WeatherDisplay:10.37,2013-09-14 07:40:00,
2013-09-14 02:45:00,46.0,45.5,30.05,ENE,75,0.0,0.0,98,0.00,CLR,,0.00,WeatherDisplay:10.37,2013-09-14 07:45:00,
2013-09-14 02:50:00,45.8,45.2,30.05,ENE,74,0.0,0.0,98,0.00,CLR,,0.00,WeatherDisplay:10.37,2013-09-14 07:50:00,
2013-09-14 02:55:00,45.5,45.0,30.05,ENE,75,0.0,0.0,98,0.00,CLR,,0.00,WeatherDisplay:10.37,2013-09-14 07:55:00,
2013-09-14 03:00:00,45.4,44.9,30.05,ENE,75,0.0,0.0,98,0.00,CLR,,0.00,WeatherDisplay:10.37,2013-09-14 08:00:00,
2013-09-14 03:05:00,45.2,44.7,30.05,ENE,74,0.0,0.0,98,0.00,CLR,,0.00,WeatherDisplay:10.37,2013-09-14 08:05:00,
2013-09-14 03:10:00,45.1,44.6,30.05,ENE,74,0.0,0.0,98,0.00,CLR,,0.00,WeatherDisplay:10.37,2013-09-14 08:10:00,
2013-09-14 03:15:00,44.9,44.4,30.05,ENE,74,0.0,0.0,98,0.00,CLR,,0.00,WeatherDisplay:10.37,2013-09-14 08:15:00,
2013-09-14 03:20:00,44.6,44.1,30.04,ENE,74,0.0,0.0,98,0.00,CLR,,0.00,WeatherDisplay:10.37,2013-09-14 08:20:00,
2013-09-14 03:25:00,44.3,43.5,30.04,ENE,74,0.0,0.0,97,0.00,CLR,,0.00,WeatherDisplay:10.37,2013-09-14 08:25:00,
2013-09-14 03:30:00,44.2,43.4,30.04,ENE,74,0.0,0.0,97,0.00,CLR,,0.00,WeatherDisplay:10.37,2013-09-14 08:30:00,
2013-09-14 03:35:00,43.9,43.1,30.05,ENE,74,0.0,0.0,97,0.00,CLR,,0.00,WeatherDisplay:10.37,2013-09-14 08:35:00,
2013-09-14 03:45:00,43.3,42.5,30.05,ENE,74,0.0,0.0,97,0.00,CLR,,0.00,WeatherDisplay:10.37,2013-09-14 08:45:00,
2013-09-14 03:50:00,43.1,42.3,30.05,ENE,74,0.0,0.0,97,0.00,CLR,,0.00,WeatherDisplay:10.37,2013-09-14 08:50:00,
2013-09-14 03:55:00,42.9,42.1,30.05,ENE,74,0.0,0.0,97,0.00,CLR,,0.00,WeatherDisplay:10.37,2013-09-14 08:55:00,
2013-09-14 04:00:00,42.8,42.1,30.05,ENE,74,0.0,0.0,97,0.00,CLR,,0.00,WeatherDisplay:10.37,2013-09-14 09:00:00,
2013-09-14 04:05:00,42.8,42.0,30.05,ENE,74,0.0,0.0,97,0.00,CLR,,0.00,WeatherDisplay:10.37,2013-09-14 09:05:00,
2013-09-14 04:10:00,42.6,41.8,30.05,ENE,74,0.0,0.0,97,0.00,CLR,,0.00,WeatherDisplay:10.37,2013-09-14 09:10:00,
2013-09-14 04:15:00,42.8,42.0,30.05,ENE,75,0.0,0.0,97,0.00,CLR,,0.00,WeatherDisplay:10.37,2013-09-14 09:15:00,
2013-09-14 04:20:00,42.6,41.8,30.05,ENE,74,0.0,0.0,97,0.00,CLR,,0.00,WeatherDisplay:10.37,2013-09-14 09:20:00,
2013-09-14 04:25:00,42.6,41.8,30.05,ENE,75,0.0,0.0,97,0.00,CLR,,0.00,WeatherDisplay:10.37,2013-09-14 09:25:00,
2013-09-14 04:30:00,42.5,42.0,30.05,ENE,74,0.0,0.0,98,0.00,CLR,,0.00,WeatherDisplay:10.37,2013-09-14 09:30:00,
2013-09-14 04:35:00,42.5,42.0,30.05,ENE,74,0.0,0.0,98,0.00,CLR,,0.00,WeatherDisplay:10.37,2013-09-14 09:35:00,
2013-09-14 04:40:00,42.5,42.0,30.05,ENE,74,0.0,0.0,98,0.00,CLR,,0.00,WeatherDisplay:10.37,2013-09-14 09:40:00,
2013-09-14 04:45:00,42.5,42.0,30.05,ENE,74,0.0,0.0,98,0.00,CLR,,0.00,WeatherDisplay:10.37,2013-09-14 09:45:00,
2013-09-14 04:50:00,42.5,42.0,30.05,ENE,74,0.0,0.0,98,0.00,CLR,,0.00,WeatherDisplay:10.37,2013-09-14 09:50:00,
2013-09-14 04:55:00,42.5,42.0,30.05,ENE,74,0.0,0.0,98,0.00,CLR,,0.00,WeatherDisplay:10.37,2013-09-14 09:55:00,
2013-09-14 05:00:00,42.6,42.1,30.05,ENE,74,0.0,0.0,98,0.00,CLR,,0.00,WeatherDisplay:10.37,2013-09-14 10:00:00,
2013-09-14 05:05:00,42.6,42.3,30.06,ENE,74,0.0,0.0,99,0.00,CLR,,0.00,WeatherDisplay:10.37,2013-09-14 10:05:00,
2013-09-14 05:10:00,42.6,42.3,30.06,ENE,74,0.0,0.0,99,0.00,CLR,,0.00,WeatherDisplay:10.37,2013-09-14 10:10:00,
2013-09-14 05:15:00,42.8,42.5,30.06,ENE,74,0.0,0.0,99,0.00,CLR,,0.00,WeatherDisplay:10.37,2013-09-14 10:15:00,
2013-09-14 05:20:00,42.8,42.5,30.05,ENE,75,0.0,0.0,99,0.00,CLR,,0.00,WeatherDisplay:10.37,2013-09-14 10:20:00,
2013-09-14 05:25:00,42.6,42.3,30.05,ENE,74,0.0,0.0,99,0.00,CLR,,0.00,WeatherDisplay:10.37,2013-09-14 10:25:00,
2013-09-14 05:30:00,42.6,42.3,30.05,ENE,74,0.0,0.0,99,0.00,CLR,,0.00,WeatherDisplay:10.37,2013-09-14 10:30:00,
2013-09-14 05:35:00,42.6,42.3,30.06,ENE,74,0.0,0.0,99,0.00,CLR,,0.00,WeatherDisplay:10.37,2013-09-14 10:35:00,
2013-09-14 05:40:00,42.6,42.3,30.06,ENE,75,0.0,0.0,99,0.00,CLR,,0.00,WeatherDisplay:10.37,2013-09-14 10:40:00,
2013-09-14 05:45:00,42.6,42.3,30.06,ENE,74,0.0,0.0,99,0.00,CLR,,0.00,WeatherDisplay:10.37,2013-09-14 10:45:00,
2013-09-14 05:50:00,42.6,42.4,30.06,ENE,74,0.0,0.0,99,0.00,CLR,,0.00,WeatherDisplay:10.37,2013-09-14 10:50:00,
2013-09-14 05:55:00,42.9,42.6,30.06,ENE,74,0.0,0.0,99,0.00,CLR,,0.00,WeatherDisplay:10.37,2013-09-14 10:55:00,
2013-09-14 06:00:00,43.2,42.9,30.06,ENE,74,0.0,0.0,99,0.00,CLR,,0.00,WeatherDisplay:10.37,2013-09-14 11:00:00,
2013-09-14 06:05:00,43.3,43.3,30.06,ENE,74,0.0,0.0,100,0.00,,,0.00,WeatherDisplay:10.37,2013-09-14 11:05:00,
2013-09-14 06:10:00,43.5,43.5,30.06,ENE,74,0.0,0.0,100,0.00,,,0.00,WeatherDisplay:10.37,2013-09-14 11:10:00,
2013-09-14 06:15:00,43.5,43.5,30.06,ENE,74,0.0,0.0,100,0.00,,,0.00,WeatherDisplay:10.37,2013-09-14 11:15:00,
2013-09-14 06:20:00,43.6,43.6,30.06,ENE,74,0.0,0.0,100,0.00,,,0.00,WeatherDisplay:10.37,2013-09-14 11:20:00,
2013-09-14 06:25:00,43.6,43.6,30.06,ENE,74,0.0,0.0,100,0.00,,,0.00,WeatherDisplay:10.37,2013-09-14 11:25:00,
2013-09-14 06:30:00,43.6,43.6,30.06,ENE,75,0.0,0.0,100,0.00,,,0.00,WeatherDisplay:10.37,2013-09-14 11:30:00,
2013-09-14 06:35:00,43.6,43.6,30.07,ENE,74,0.0,0.0,100,0.00,,,0.00,WeatherDisplay:10.37,2013-09-14 11:35:00,
2013-09-14 06:40:00,43.8,43.8,30.07,ENE,74,0.0,0.0,100,0.00,,,0.00,WeatherDisplay:10.37,2013-09-14 11:40:00,
2013-09-14 06:45:00,43.9,43.9,30.07,ENE,74,0.0,0.0,100,0.00,,,0.00,WeatherDisplay:10.37,2013-09-14 11:45:00,
2013-09-14 06:50:00,43.9,43.9,30.06,ENE,74,0.0,0.0,100,0.00,,,0.00,WeatherDisplay:10.37,2013-09-14 11:50:00,
2013-09-14 06:55:00,43.9,43.9,30.06,ENE,74,0.0,0.0,100,0.00,,,0.00,WeatherDisplay:10.37,2013-09-14 11:55:00,
2013-09-14 07:00:00,44.1,44.1,30.06,ENE,74,0.0,0.0,100,0.00,,,0.00,WeatherDisplay:10.37,2013-09-14 12:00:00,
2013-09-14 07:05:00,44.1,44.1,30.07,ENE,74,0.0,0.0,100,0.00,,,0.00,WeatherDisplay:10.37,2013-09-14 12:05:00,
2013-09-14 07:10:00,44.2,44.2,30.07,ENE,74,0.0,0.0,100,0.00,,,0.00,WeatherDisplay:10.37,2013-09-14 12:10:00,
2013-09-14 07:15:00,44.5,44.5,30.07,ENE,74,0.0,0.0,100,0.00,,,0.00,WeatherDisplay:10.37,2013-09-14 12:15:00,
2013-09-14 07:20:00,44.8,44.8,30.07,ENE,74,0.0,0.0,100,0.00,,,0.00,WeatherDisplay:10.37,2013-09-14 12:20:00,
2013-09-14 07:25:00,45.1,45.1,30.07,ENE,74,0.0,0.0,100,0.00,,,0.00,WeatherDisplay:10.37,2013-09-14 12:25:00,
2013-09-14 07:30:00,45.4,45.4,30.07,ENE,74,0.0,0.0,100,0.00,,,0.00,WeatherDisplay:10.37,2013-09-14 12:30:00,
2013-09-14 07:35:00,45.9,45.9,30.07,ENE,74,0.0,2.0,100,0.00,,,0.00,WeatherDisplay:10.37,2013-09-14 12:35:00,
2013-09-14 07:40:00,46.2,46.2,30.07,ENE,74,0.0,0.0,100,0.00,,,0.00,WeatherDisplay:10.37,2013-09-14 12:40:00,
2013-09-14 07:45:00,46.5,46.5,30.07,ENE,74,0.0,0.0,100,0.00,CLR,,0.00,WeatherDisplay:10.37,2013-09-14 12:45:00,
2013-09-14 07:50:00,46.8,46.8,30.07,ENE,74,0.0,0.0,100,0.00,CLR,,0.00,WeatherDisplay:10.37,2013-09-14 12:50:00,
2013-09-14 07:55:00,47.1,47.1,30.07,ENE,74,0.0,0.0,100,0.00,CLR,,0.00,WeatherDisplay:10.37,2013-09-14 12:55:00,
2013-09-14 08:00:00,47.6,47.6,30.07,ENE,74,0.0,1.0,100,0.00,CLR,,0.00,WeatherDisplay:10.37,2013-09-14 13:00:00,
2013-09-14 08:05:00,47.9,47.9,30.07,ENE,74,0.0,0.0,100,0.00,CLR,,0.00,WeatherDisplay:10.37,2013-09-14 13:05:00,
2013-09-14 08:10:00,48.2,48.2,30.07,ENE,74,0.0,0.0,100,0.00,CLR,,0.00,WeatherDisplay:10.37,2013-09-14 13:10:00,
2013-09-14 08:15:00,48.5,48.5,30.07,ENE,74,0.0,0.0,100,0.00,CLR,,0.00,WeatherDisplay:10.37,2013-09-14 13:15:00,
2013-09-14 08:20:00,48.9,48.9,30.06,ENE,74,0.0,0.0,100,0.00,CLR,,0.00,WeatherDisplay:10.37,2013-09-14 13:20:00,
2013-09-14 08:25:00,49.2,49.2,30.06,ENE,74,0.0,0.0,100,0.00,CLR,,0.00,WeatherDisplay:10.37,2013-09-14 13:25:00,
2013-09-14 08:30:00,49.5,49.5,30.06,ENE,75,0.0,2.0,100,0.00,CLR,,0.00,WeatherDisplay:10.37,2013-09-14 13:30:00,
2013-09-14 08:35:00,49.9,49.9,30.06,ENE,75,0.0,2.0,100,0.00,CLR,,0.00,WeatherDisplay:10.37,2013-09-14 13:35:00,
2013-09-14 08:40:00,50.2,50.2,30.06,ENE,75,0.0,0.0,100,0.00,CLR,,0.00,WeatherDisplay:10.37,2013-09-14 13:40:00,
2013-09-14 08:45:00,50.5,50.5,30.06,East,82,0.0,3.0,100,0.00,CLR,,0.00,WeatherDisplay:10.37,2013-09-14 13:45:00,
2013-09-14 08:50:00,50.8,50.8,30.07,South,191,0.0,3.0,100,0.00,CLR,,0.00,WeatherDisplay:10.37,2013-09-14 13:50:00,
2013-09-14 08:55:00,51.1,51.1,30.07,SSW,207,0.0,0.0,100,0.00,CLR,,0.00,WeatherDisplay:10.37,2013-09-14 13:55:00,
2013-09-14 09:00:00,51.6,51.3,30.07,SSW,205,0.0,1.0,99,0.00,CLR,,0.00,WeatherDisplay:10.37,2013-09-14 14:00:00,
2013-09-14 09:05:00,51.9,51.1,30.07,SSW,199,0.0,2.0,97,0.00,CLR,,0.00,WeatherDisplay:10.37,2013-09-14 14:05:00,
2013-09-14 09:10:00,52.3,51.2,30.07,SSW,193,0.0,1.0,96,0.00,CLR,,0.00,WeatherDisplay:10.37,2013-09-14 14:10:00,
2013-09-14 09:15:00,52.6,50.6,30.07,SSW,198,0.0,2.0,93,0.00,CLR,,0.00,WeatherDisplay:10.37,2013-09-14 14:15:00,
2013-09-14 09:20:00,53.0,50.5,30.07,SSW,208,0.0,2.0,91,0.00,CLR,,0.00,WeatherDisplay:10.37,2013-09-14 14:20:00,
2013-09-14 09:25:00,53.5,50.3,30.07,West,264,0.0,2.0,89,0.00,CLR,,0.00,WeatherDisplay:10.37,2013-09-14 14:25:00,
2013-09-14 09:30:00,53.9,50.4,30.07,West,263,0.0,1.0,88,0.00,CLR,,0.00,WeatherDisplay:10.37,2013-09-14 14:30:00,
2013-09-14 09:35:00,54.4,49.7,30.07,SW,226,0.0,5.0,84,0.00,CLR,,0.00,WeatherDisplay:10.37,2013-09-14 14:35:00,
2013-09-14 09:40:00,54.9,50.1,30.07,SSW,198,0.0,1.0,84,0.00,CLR,,0.00,WeatherDisplay:10.37,2013-09-14 14:40:00,
2013-09-14 09:45:00,55.4,50.0,30.07,SSW,202,0.0,1.0,82,0.00,CLR,,0.00,WeatherDisplay:10.37,2013-09-14 14:45:00,
2013-09-14 09:50:00,55.9,50.2,30.06,SSW,211,0.0,1.0,81,0.00,CLR,,0.00,WeatherDisplay:10.37,2013-09-14 14:50:00,
2013-09-14 09:55:00,56.3,50.2,30.06,SSW,194,0.0,4.0,80,0.00,CLR,,0.00,WeatherDisplay:10.37,2013-09-14 14:55:00,
2013-09-14 10:00:00,56.7,49.9,30.06,SSW,198,1.0,3.0,78,0.00,CLR,,0.00,WeatherDisplay:10.37,2013-09-14 15:00:00,
2013-09-14 10:05:00,57.0,49.5,30.07,SW,236,2.0,6.0,76,0.00,CLR,,0.00,WeatherDisplay:10.37,2013-09-14 15:05:00,
2013-09-14 10:10:00,57.3,49.1,30.07,SW,234,0.0,4.0,74,0.00,CLR,,0.00,WeatherDisplay:10.37,2013-09-14 15:10:00,
2013-09-14 10:15:00,57.6,49.4,30.07,SW,229,1.0,5.0,74,0.00,CLR,,0.00,WeatherDisplay:10.37,2013-09-14 15:15:00,
2013-09-14 10:20:00,58.1,49.8,30.06,WSW,247,0.0,3.0,74,0.00,CLR,,0.00,WeatherDisplay:10.37,2013-09-14 15:20:00,
2013-09-14 10:25:00,58.5,50.2,30.06,SW,217,1.0,6.0,74,0.00,CLR,,0.00,WeatherDisplay:10.37,2013-09-14 15:25:00,
2013-09-14 10:30:00,58.9,50.3,30.06,SSW,201,0.0,1.0,73,0.00,CLR,,0.00,WeatherDisplay:10.37,2013-09-14 15:30:00,
2013-09-14 10:35:00,59.3,49.9,30.06,SSW,210,0.0,4.0,71,0.00,CLR,,0.00,WeatherDisplay:10.37,2013-09-14 15:35:00,
2013-09-14 10:45:00,60.2,49.6,30.06,WSW,243,0.0,3.0,68,0.00,CLR,,0.00,WeatherDisplay:10.37,2013-09-14 15:45:00,
2013-09-14 10:50:00,60.5,49.5,30.05,WSW,245,0.0,4.0,67,0.00,CLR,,0.00,WeatherDisplay:10.37,2013-09-14 15:50:00,
2013-09-14 10:55:00,61.1,50.5,30.05,WSW,242,0.0,2.0,68,0.00,CLR,,0.00,WeatherDisplay:10.37,2013-09-14 15:55:00,
2013-09-14 11:00:00,61.6,50.5,30.05,WSW,238,0.0,1.0,67,0.00,CLR,,0.00,WeatherDisplay:10.37,2013-09-14 16:00:00,
2013-09-14 11:05:00,62.3,50.8,30.05,SW,233,1.0,5.0,66,0.00,CLR,,0.00,WeatherDisplay:10.37,2013-09-14 16:05:00,
2013-09-14 11:10:00,62.6,49.4,30.05,SSW,207,1.0,5.0,62,0.00,CLR,,0.00,WeatherDisplay:10.37,2013-09-14 16:10:00,
2013-09-14 11:15:00,63.0,50.6,30.05,SSE,167,0.0,1.0,64,0.00,CLR,,0.00,WeatherDisplay:10.37,2013-09-14 16:15:00,
2013-09-14 11:20:00,63.4,50.6,30.05,SSW,201,1.0,4.0,63,0.00,CLR,,0.00,WeatherDisplay:10.37,2013-09-14 16:20:00,
2013-09-14 11:25:00,63.9,51.1,30.05,WSW,248,0.0,3.0,63,0.00,CLR,,0.00,WeatherDisplay:10.37,2013-09-14 16:25:00,
2013-09-14 11:30:00,64.2,50.0,30.05,WSW,238,2.0,5.0,60,0.00,CLR,,0.00,WeatherDisplay:10.37,2013-09-14 16:30:00,
2013-09-14 11:35:00,64.3,49.7,30.04,SW,228,0.0,5.0,59,0.00,CLR,,0.00,WeatherDisplay:10.37,2013-09-14 16:35:00,
2013-09-14 11:40:00,64.8,50.5,30.04,WSW,238,0.0,4.0,60,0.00,CLR,,0.00,WeatherDisplay:10.37,2013-09-14 16:40:00,
2013-09-14 11:45:00,65.0,49.9,30.04,WSW,244,1.0,3.0,58,0.00,CLR,,0.00,WeatherDisplay:10.37,2013-09-14 16:45:00,
2013-09-14 11:50:00,65.3,50.6,30.04,WSW,239,1.0,4.0,59,0.00,CLR,,0.00,WeatherDisplay:10.37,2013-09-14 16:50:00,
2013-09-14 11:55:00,65.6,49.5,30.04,SW,220,3.0,5.0,56,0.00,CLR,,0.00,WeatherDisplay:10.37,2013-09-14 16:55:00,
2013-09-14 12:00:00,65.8,50.1,30.04,SW,217,0.0,4.0,57,0.00,CLR,,0.00,WeatherDisplay:10.37,2013-09-14 17:00:00,
2013-09-14 12:05:00,65.8,51.1,30.03,SW,220,0.0,3.0,59,0.00,CLR,,0.00,WeatherDisplay:10.37,2013-09-14 17:05:00,
2013-09-14 12:10:00,65.8,51.1,30.03,SW,226,1.0,4.0,59,0.00,CLR,,0.00,WeatherDisplay:10.37,2013-09-14 17:10:00,
2013-09-14 12:15:00,66.0,49.4,30.03,SW,222,0.0,4.0,55,0.00,CLR,,0.00,WeatherDisplay:10.37,2013-09-14 17:15:00,
2013-09-14 12:20:00,66.1,49.9,30.02,SW,221,0.0,4.0,56,0.00,CLR,,0.00,WeatherDisplay:10.37,2013-09-14 17:20:00,
2013-09-14 12:25:00,66.3,49.2,30.02,SW,214,1.0,5.0,54,0.00,CLR,,0.00,WeatherDisplay:10.37,2013-09-14 17:25:00,
2013-09-14 12:30:00,65.6,47.5,30.02,SSW,210,0.0,4.0,52,0.00,CLR,,0.00,WeatherDisplay:10.37,2013-09-14 17:30:00,
2013-09-14 12:35:00,65.6,48.5,30.02,SSW,212,0.0,3.0,54,0.00,CLR,,0.00,WeatherDisplay:10.37,2013-09-14 17:35:00,
2013-09-14 12:40:00,66.0,50.3,30.02,SSW,206,0.0,4.0,57,0.00,CLR,,0.00,WeatherDisplay:10.37,2013-09-14 17:40:00,
2013-09-14 12:45:00,66.4,50.2,30.02,SW,217,1.0,4.0,56,0.00,CLR,,0.00,WeatherDisplay:10.37,2013-09-14 17:45:00,
2013-09-14 12:50:00,66.9,50.2,30.01,SW,226,1.0,3.0,55,0.00,CLR,,0.00,WeatherDisplay:10.37,2013-09-14 17:50:00,
2013-09-14 12:55:00,67.2,49.5,30.01,WSW,246,0.0,4.0,53,0.00,CLR,,0.00,WeatherDisplay:10.37,2013-09-14 17:55:00,
2013-09-14 13:00:00,67.1,48.4,30.01,West,263,0.0,4.0,51,0.00,CLR,,0.00,WeatherDisplay:10.37,2013-09-14 18:00:00,
2013-09-14 13:05:00,66.9,48.7,30.00,West,274,0.0,3.0,52,0.00,CLR,,0.00,WeatherDisplay:10.37,2013-09-14 18:05:00,
2013-09-14 13:10:00,66.8,49.1,30.00,WSW,255,0.0,5.0,53,0.00,CLR,,0.00,WeatherDisplay:10.37,2013-09-14 18:10:00,
2013-09-14 13:15:00,66.4,48.7,30.00,WSW,254,0.0,1.0,53,0.00,CLR,,0.00,WeatherDisplay:10.37,2013-09-14 18:15:00,
2013-09-14 13:20:00,66.3,48.7,30.00,WSW,257,2.0,4.0,53,0.00,CLR,,0.00,WeatherDisplay:10.37,2013-09-14 18:20:00,
2013-09-14 13:25:00,66.4,48.7,30.00,West,263,0.0,1.0,53,0.00,CLR,,0.00,WeatherDisplay:10.37,2013-09-14 18:25:00,
2013-09-14 13:30:00,66.8,49.7,30.00,WSW,242,2.0,4.0,54,0.00,CLR,,0.00,WeatherDisplay:10.37,2013-09-14 18:30:00,
2013-09-14 13:35:00,67.5,50.7,29.99,SW,230,0.0,2.0,55,0.00,CLR,,0.00,WeatherDisplay:10.37,2013-09-14 18:35:00,
2013-09-14 13:40:00,67.8,49.5,29.99,SW,218,0.0,4.0,52,0.00,CLR,,0.00,WeatherDisplay:10.37,2013-09-14 18:40:00,
2013-09-14 13:45:00,67.6,50.4,29.99,SSW,209,2.0,4.0,54,0.00,CLR,,0.00,WeatherDisplay:10.37,2013-09-14 18:45:00,
2013-09-14 13:50:00,67.7,49.4,29.98,SSW,209,1.0,5.0,52,0.00,CLR,,0.00,WeatherDisplay:10.37,2013-09-14 18:50:00,
2013-09-14 13:55:00,68.1,50.3,29.98,SSW,208,3.0,7.0,53,0.00,CLR,,0.00,WeatherDisplay:10.37,2013-09-14 18:55:00,
2013-09-14 14:00:00,68.4,49.0,29.98,SW,220,0.0,6.0,50,0.00,CLR,,0.00,WeatherDisplay:10.37,2013-09-14 19:00:00,
2013-09-14 14:05:00,68.3,49.5,29.97,SW,236,0.0,5.0,51,0.00,CLR,,0.00,WeatherDisplay:10.37,2013-09-14 19:05:00,
2013-09-14 14:10:00,68.3,48.9,29.97,SSW,209,1.0,5.0,50,0.00,CLR,,0.00,WeatherDisplay:10.37,2013-09-14 19:10:00,
2013-09-14 14:15:00,68.6,49.7,29.97,SSW,199,1.0,7.0,51,0.00,CLR,,0.00,WeatherDisplay:10.37,2013-09-14 19:15:00,
2013-09-14 14:20:00,68.9,50.0,29.97,SSW,210,1.0,7.0,51,0.00,CLR,,0.00,WeatherDisplay:10.37,2013-09-14 19:20:00,
2013-09-14 14:25:00,68.9,49.5,29.97,SSW,213,1.0,6.0,50,0.00,CLR,,0.00,WeatherDisplay:10.37,2013-09-14 19:25:00,
2013-09-14 14:30:00,68.9,50.0,29.97,SSW,213,0.0,5.0,51,0.00,CLR,,0.00,WeatherDisplay:10.37,2013-09-14 19:30:00,
2013-09-14 14:35:00,68.8,49.9,29.96,SSW,211,3.0,6.0,51,0.00,CLR,,0.00,WeatherDisplay:10.37,2013-09-14 19:35:00,
2013-09-14 14:40:00,69.0,50.1,29.96,SSW,200,0.0,4.0,51,0.00,CLR,,0.00,WeatherDisplay:10.37,2013-09-14 19:40:00,
2013-09-14 14:45:00,69.3,49.9,29.96,SSW,204,0.0,6.0,50,0.00,CLR,,0.00,WeatherDisplay:10.37,2013-09-14 19:45:00,
2013-09-14 14:55:00,69.3,48.2,29.95,SSW,207,1.0,6.0,47,0.00,CLR,,0.00,WeatherDisplay:10.37,2013-09-14 19:55:00,
2013-09-14 15:00:00,69.3,49.3,29.95,SW,216,0.0,5.0,49,0.00,CLR,,0.00,WeatherDisplay:10.37,2013-09-14 20:00:00,
2013-09-14 15:10:00,69.3,47.6,29.95,SW,234,1.0,5.0,46,0.00,CLR,,0.00,WeatherDisplay:10.37,2013-09-14 20:10:00,
2013-09-14 15:15:00,68.8,48.8,29.95,SW,226,2.0,5.0,49,0.00,CLR,,0.00,WeatherDisplay:10.37,2013-09-14 20:15:00,
2013-09-14 15:20:00,68.4,49.6,29.95,SW,216,1.0,5.0,51,0.00,CLR,,0.00,WeatherDisplay:10.37,2013-09-14 20:20:00,
2013-09-14 15:25:00,68.4,48.5,29.95,WSW,243,1.0,4.0,49,0.00,CLR,,0.00,WeatherDisplay:10.37,2013-09-14 20:25:00,
2013-09-14 15:30:00,68.4,49.0,29.95,WSW,258,0.0,5.0,50,0.00,CLR,,0.00,WeatherDisplay:10.37,2013-09-14 20:30:00,
2013-09-14 15:35:00,68.6,49.7,29.94,SSW,205,1.0,6.0,51,0.00,CLR,,0.00,WeatherDisplay:10.37,2013-09-14 20:35:00,
2013-09-14 15:40:00,68.6,49.2,29.94,SSW,213,0.0,2.0,50,0.00,CLR,,0.00,WeatherDisplay:10.37,2013-09-14 20:40:00,
2013-09-14 15:45:00,68.6,49.7,29.94,WSW,247,0.0,5.0,51,0.00,CLR,,0.00,WeatherDisplay:10.37,2013-09-14 20:45:00,
2013-09-14 15:50:00,68.6,47.6,29.94,SW,222,0.0,6.0,47,0.00,CLR,,0.00,WeatherDisplay:10.37,2013-09-14 20:50:00,
2013-09-14 15:55:00,68.8,49.4,29.94,SSW,203,1.0,6.0,50,0.00,CLR,,0.00,WeatherDisplay:10.37,2013-09-14 20:55:00,
2013-09-14 16:00:00,68.8,49.4,29.94,SSW,192,0.0,4.0,50,0.00,CLR,,0.00,WeatherDisplay:10.37,2013-09-14 21:00:00,
2013-09-14 16:05:00,68.8,48.3,29.94,SSW,200,0.0,5.0,48,0.00,CLR,,0.00,WeatherDisplay:10.37,2013-09-14 21:05:00,
2013-09-14 16:10:00,68.8,49.4,29.94,SW,217,1.0,3.0,50,0.00,CLR,,0.00,WeatherDisplay:10.37,2013-09-14 21:10:00,
2013-09-14 16:15:00,68.6,48.1,29.94,SW,220,2.0,6.0,48,0.00,CLR,,0.00,WeatherDisplay:10.37,2013-09-14 21:15:00,
2013-09-14 16:20:00,68.4,49.0,29.94,South,187,0.0,1.0,50,0.00,CLR,,0.00,WeatherDisplay:10.37,2013-09-14 21:20:00,
2013-09-14 16:25:00,68.3,47.3,29.94,South,177,1.0,3.0,47,0.00,CLR,,0.00,WeatherDisplay:10.37,2013-09-14 21:25:00,
2013-09-14 16:30:00,68.2,49.4,29.94,SSW,195,1.0,4.0,51,0.00,CLR,,0.00,WeatherDisplay:10.37,2013-09-14 21:30:00,
2013-09-14 16:35:00,67.9,50.1,29.93,SW,218,2.0,5.0,53,0.00,CLR,,0.00,WeatherDisplay:10.37,2013-09-14 21:35:00,
2013-09-14 16:40:00,67.8,50.0,29.93,SSW,194,0.0,3.0,53,0.00,CLR,,0.00,WeatherDisplay:10.37,2013-09-14 21:40:00,
2013-09-14 16:45:00,67.5,49.2,29.93,South,175,1.0,5.0,52,0.00,CLR,,0.00,WeatherDisplay:10.37,2013-09-14 21:45:00,
2013-09-14 16:50:00,67.4,48.6,29.92,South,176,0.0,5.0,51,0.00,CLR,,0.00,WeatherDisplay:10.37,2013-09-14 21:50:00,
2013-09-14 16:55:00,67.4,48.6,29.92,South,181,2.0,4.0,51,0.00,CLR,,0.00,WeatherDisplay:10.37,2013-09-14 21:55:00,
2013-09-14 17:00:00,67.4,49.7,29.92,South,190,1.0,4.0,53,0.00,CLR,,0.00,WeatherDisplay:10.37,2013-09-14 22:00:00,
2013-09-14 17:05:00,67.3,50.1,29.92,SSW,200,1.0,5.0,54,0.00,CLR,,0.00,WeatherDisplay:10.37,2013-09-14 22:05:00,
2013-09-14 17:10:00,67.3,50.1,29.92,SW,215,1.0,3.0,54,0.00,CLR,,0.00,WeatherDisplay:10.37,2013-09-14 22:10:00,
2013-09-14 17:15:00,67.3,51.1,29.92,SSW,206,0.0,6.0,56,0.00,CLR,,0.00,WeatherDisplay:10.37,2013-09-14 22:15:00,
2013-09-14 17:20:00,67.1,49.9,29.92,SSW,204,1.0,5.0,54,0.00,CLR,,0.00,WeatherDisplay:10.37,2013-09-14 22:20:00,
2013-09-14 17:25:00,67.1,50.4,29.92,South,187,2.0,5.0,55,0.00,CLR,,0.00,WeatherDisplay:10.37,2013-09-14 22:25:00,
2013-09-14 17:30:00,66.8,50.1,29.92,South,183,0.0,4.0,55,0.00,CLR,,0.00,WeatherDisplay:10.37,2013-09-14 22:30:00,
2013-09-14 17:35:00,66.6,49.9,29.92,SSW,201,0.0,1.0,55,0.00,CLR,,0.00,WeatherDisplay:10.37,2013-09-14 22:35:00,
2013-09-14 17:40:00,66.3,50.2,29.92,ESE,117,0.0,2.0,56,0.00,CLR,,0.00,WeatherDisplay:10.37,2013-09-14 22:40:00,
2013-09-14 17:45:00,66.1,50.4,29.92,ESE,119,0.0,2.0,57,0.00,CLR,,0.00,WeatherDisplay:10.37,2013-09-14 22:45:00,
2013-09-14 17:50:00,66.0,51.7,29.92,ESE,121,0.0,1.0,60,0.00,CLR,,0.00,WeatherDisplay:10.37,2013-09-14 22:50:00,
2013-09-14 17:55:00,65.6,51.3,29.92,SE,127,0.0,0.0,60,0.00,CLR,,0.00,WeatherDisplay:10.37,2013-09-14 22:55:00,
2013-09-14 18:00:00,65.5,51.2,29.92,SSE,168,0.0,3.0,60,0.00,CLR,,0.00,WeatherDisplay:10.37,2013-09-14 23:00:00,
2013-09-14 18:05:00,65.2,52.3,29.92,WSW,252,0.0,3.0,63,0.00,CLR,,0.00,WeatherDisplay:10.37,2013-09-14 23:05:00,
2013-09-14 18:10:00,65.0,51.7,29.92,WSW,252,0.0,0.0,62,0.00,CLR,,0.00,WeatherDisplay:10.37,2013-09-14 23:10:00,
2013-09-14 18:15:00,64.7,52.2,29.92,WSW,239,0.0,4.0,64,0.00,CLR,,0.00,WeatherDisplay:10.37,2013-09-14 23:15:00,
2013-09-14 18:20:00,64.5,52.0,29.91,South,187,0.0,2.0,64,0.00,CLR,,0.00,WeatherDisplay:10.37,2013-09-14 23:20:00,
2013-09-14 18:25:00,64.2,52.2,29.91,South,184,0.0,3.0,65,0.00,CLR,,0.00,WeatherDisplay:10.37,2013-09-14 23:25:00,
2013-09-14 18:30:00,63.8,51.8,29.91,South,187,0.0,2.0,65,0.00,CLR,,0.00,WeatherDisplay:10.37,2013-09-14 23:30:00,
2013-09-14 18:35:00,63.4,51.8,29.91,South,176,1.0,4.0,66,0.00,CLR,,0.00,WeatherDisplay:10.37,2013-09-14 23:35:00,
2013-09-14 18:40:00,63.1,51.1,29.91,South,171,0.0,2.0,65,0.00,CLR,,0.00,WeatherDisplay:10.37,2013-09-14 23:40:00,
2013-09-14 18:45:00,62.7,51.2,29.91,South,177,0.0,0.0,66,0.00,CLR,,0.00,WeatherDisplay:10.37,2013-09-14 23:45:00,
2013-09-14 18:50:00,62.4,50.9,29.91,South,177,0.0,0.0,66,0.00,CLR,,0.00,WeatherDisplay:10.37,2013-09-14 23:50:00,
2013-09-14 18:55:00,62.1,51.0,29.91,South,177,1.0,2.0,67,0.00,CLR,,0.00,WeatherDisplay:10.37,2013-09-14 23:55:00,
2013-09-14 19:00:00,61.8,50.3,29.91,South,178,0.0,0.0,66,0.00,CLR,,0.00,WeatherDisplay:10.37,2013-09-15 00:00:00,
2013-09-14 19:05:00,61.5,50.4,29.91,South,178,0.0,0.0,67,0.00,CLR,,0.00,WeatherDisplay:10.37,2013-09-15 00:05:00,
2013-09-14 19:10:00,61.3,50.2,29.91,South,178,0.0,0.0,67,0.00,CLR,,0.00,WeatherDisplay:10.37,2013-09-15 00:10:00,
2013-09-14 19:15:00,61.2,50.2,29.91,South,178,0.0,2.0,67,0.00,CLR,,0.00,WeatherDisplay:10.37,2013-09-15 00:15:00,
2013-09-14 19:20:00,61.2,50.6,29.91,South,178,0.0,2.0,68,0.00,CLR,,0.00,WeatherDisplay:10.37,2013-09-15 00:20:00,
2013-09-14 19:25:00,61.0,50.4,29.91,South,179,1.0,3.0,68,0.00,CLR,,0.00,WeatherDisplay:10.37,2013-09-15 00:25:00,
2013-09-14 19:30:00,61.0,50.8,29.91,South,181,1.0,4.0,69,0.00,CLR,,0.00,WeatherDisplay:10.37,2013-09-15 00:30:00,
2013-09-14 19:35:00,60.9,50.7,29.90,SSW,197,0.0,4.0,69,0.00,CLR,,0.00,WeatherDisplay:10.37,2013-09-15 00:35:00,
2013-09-14 19:40:00,60.9,51.0,29.90,SSW,207,0.0,4.0,70,0.00,CLR,,0.00,WeatherDisplay:10.37,2013-09-15 00:40:00,
2013-09-14 19:45:00,60.9,50.7,29.90,SSW,202,0.0,1.0,69,0.00,CLR,,0.00,WeatherDisplay:10.37,2013-09-15 00:45:00,
2013-09-14 19:50:00,60.9,51.0,29.91,SSW,207,1.0,2.0,70,0.00,CLR,,0.00,WeatherDisplay:10.37,2013-09-15 00:50:00,
2013-09-14 19:55:00,61.0,51.1,29.91,SSW,205,0.0,3.0,70,0.00,CLR,,0.00,WeatherDisplay:10.37,2013-09-15 00:55:00,
2013-09-14 20:00:00,61.0,51.1,29.91,SSW,195,0.0,0.0,70,0.00,CLR,,0.00,WeatherDisplay:10.37,2013-09-15 01:00:00,
2013-09-14 20:05:00,60.9,51.4,29.91,SSW,194,0.0,2.0,71,0.00,CLR,,0.00,WeatherDisplay:10.37,2013-09-15 01:05:00,
2013-09-14 20:10:00,60.9,51.8,29.91,SSW,194,0.0,0.0,72,0.00,CLR,,0.00,WeatherDisplay:10.37,2013-09-15 01:10:00,
2013-09-14 20:15:00,60.9,51.4,29.91,SSW,196,0.0,1.0,71,0.00,CLR,,0.00,WeatherDisplay:10.37,2013-09-15 01:15:00,
2013-09-14 20:20:00,60.9,51.8,29.91,SSW,200,0.0,0.0,72,0.00,CLR,,0.00,WeatherDisplay:10.37,2013-09-15 01:20:00,
2013-09-14 20:25:00,60.7,51.2,29.91,SSW,200,0.0,3.0,71,0.00,CLR,,0.00,WeatherDisplay:10.37,2013-09-15 01:25:00,
2013-09-14 20:30:00,60.7,51.6,29.91,SSW,201,0.0,3.0,72,0.00,CLR,,0.00,WeatherDisplay:10.37,2013-09-15 01:30:00,
2013-09-14 20:35:00,60.5,51.4,29.91,SSW,201,1.0,4.0,72,0.00,CLR,,0.00,WeatherDisplay:10.37,2013-09-15 01:35:00,
2013-09-14 20:40:00,60.4,51.3,29.91,SSW,201,0.0,2.0,72,0.00,CLR,,0.00,WeatherDisplay:10.37,2013-09-15 01:40:00,
2013-09-14 20:45:00,60.2,50.4,29.91,SW,225,1.0,3.0,70,0.00,CLR,,0.00,WeatherDisplay:10.37,2013-09-15 01:45:00,
2013-09-14 20:50:00,60.2,50.8,29.90,WSW,243,0.0,3.0,71,0.00,CLR,,0.00,WeatherDisplay:10.37,2013-09-15 01:50:00,
2013-09-14 20:55:00,60.1,50.3,29.90,SW,220,1.0,3.0,70,0.00,CLR,,0.00,WeatherDisplay:10.37,2013-09-15 01:55:00,
2013-09-14 21:00:00,60.1,50.7,29.90,SSW,196,1.0,3.0,71,0.00,CLR,,0.00,WeatherDisplay:10.37,2013-09-15 02:00:00,
2013-09-14 21:05:00,60.1,50.7,29.90,SSW,196,0.0,1.0,71,0.00,CLR,,0.00,WeatherDisplay:10.37,2013-09-15 02:05:00,
2013-09-14 21:19:00,59.9,50.8,29.89,SSW,200,0.0,2.0,72,0.00,CLR,,0.00,WeatherDisplay:10.37,2013-09-15 02:19:00,
2013-09-14 21:24:00,59.8,50.8,29.89,SSW,196,0.0,4.0,72,0.00,CLR,,0.00,WeatherDisplay:10.37,2013-09-15 02:24:00,
2013-09-14 21:29:00,59.8,50.8,29.89,SSW,196,1.0,3.0,72,0.00,CLR,,0.00,WeatherDisplay:10.37,2013-09-15 02:29:00,
2013-09-14 21:34:00,59.8,50.8,29.90,SSW,196,0.0,2.0,72,0.00,CLR,,0.00,WeatherDisplay:10.37,2013-09-15 02:34:00,
2013-09-14 21:39:00,59.8,50.8,29.90,SSW,196,0.0,3.0,72,0.00,CLR,,0.00,WeatherDisplay:10.37,2013-09-15 02:39:00,
2013-09-14 21:44:00,59.8,50.8,29.90,SSW,196,0.0,2.0,72,0.00,CLR,,0.00,WeatherDisplay:10.37,2013-09-15 02:44:00,
2013-09-14 21:49:00,59.6,50.6,29.89,SSW,196,1.0,3.0,72,0.00,CLR,,0.00,WeatherDisplay:10.37,2013-09-15 02:49:00,
2013-09-14 21:54:00,59.6,50.6,29.89,SSW,198,0.0,0.0,72,0.00,CLR,,0.00,WeatherDisplay:10.37,2013-09-15 02:54:00,
2013-09-14 21:59:00,59.6,50.9,29.89,SSW,198,0.0,2.0,73,0.00,CLR,,0.00,WeatherDisplay:10.37,2013-09-15 02:59:00,
2013-09-14 22:04:00,59.6,50.6,29.89,SSW,198,0.0,1.0,72,0.00,CLR,,0.00,WeatherDisplay:10.37,2013-09-15 03:04:00,
2013-09-14 22:09:00,59.6,50.6,29.89,SSW,205,0.0,1.0,72,0.00,CLR,,0.00,WeatherDisplay:10.37,2013-09-15 03:09:00,
2013-09-14 22:14:00,59.8,50.8,29.89,SSW,208,0.0,2.0,72,0.00,CLR,,0.00,WeatherDisplay:10.37,2013-09-15 03:14:00,
2013-09-14 22:19:00,59.9,50.8,29.89,SSW,203,0.0,2.0,72,0.00,CLR,,0.00,WeatherDisplay:10.37,2013-09-15 03:19:00,
2013-09-14 22:24:00,60.1,51.0,29.89,SSW,200,0.0,2.0,72,0.00,CLR,,0.00,WeatherDisplay:10.37,2013-09-15 03:24:00,
2013-09-14 22:29:00,60.1,51.0,29.89,SSW,200,0.0,0.0,72,0.00,CLR,,0.00,WeatherDisplay:10.37,2013-09-15 03:29:00,
2013-09-14 22:34:00,60.1,51.4,29.89,SSW,200,0.0,2.0,73,0.00,CLR,,0.00,WeatherDisplay:10.37,2013-09-15 03:34:00,
2013-09-14 22:39:00,59.9,50.8,29.89,SSW,209,1.0,2.0,72,0.00,CLR,,0.00,WeatherDisplay:10.37,2013-09-15 03:39:00,
2013-09-14 22:44:00,59.9,50.5,29.89,SW,216,1.0,4.0,71,0.00,CLR,,0.00,WeatherDisplay:10.37,2013-09-15 03:44:00,
2013-09-14 22:49:00,60.1,51.0,29.89,SW,214,0.0,1.0,72,0.00,CLR,,0.00,WeatherDisplay:10.37,2013-09-15 03:49:00,
2013-09-14 22:54:00,60.1,50.7,29.89,SW,214,0.0,2.0,71,0.00,CLR,,0.00,WeatherDisplay:10.37,2013-09-15 03:54:00,
2013-09-14 22:59:00,60.1,51.0,29.89,SW,234,0.0,4.0,72,0.00,CLR,,0.00,WeatherDisplay:10.37,2013-09-15 03:59:00,
2013-09-14 23:04:00,60.1,51.0,29.91,WSW,237,0.0,3.0,72,0.00,CLR,,0.00,WeatherDisplay:10.37,2013-09-15 04:04:00,
2013-09-14 23:09:00,60.0,50.9,29.91,WSW,237,0.0,3.0,72,0.00,CLR,,0.00,WeatherDisplay:10.37,2013-09-15 04:09:00,
2013-09-14 23:14:00,59.9,51.6,29.91,WSW,237,0.0,4.0,74,0.00,CLR,,0.00,WeatherDisplay:10.37,2013-09-15 04:14:00,
2013-09-14 23:19:00,59.8,50.8,29.91,SW,214,2.0,5.0,72,0.00,CLR,,0.00,WeatherDisplay:10.37,2013-09-15 04:19:00,
2013-09-14 23:24:00,59.8,51.5,29.91,SSW,202,0.0,2.0,74,0.00,CLR,,0.00,WeatherDisplay:10.37,2013-09-15 04:24:00,
2013-09-14 23:29:00,59.6,51.3,29.91,SSW,195,0.0,2.0,74,0.00,CLR,,0.00,WeatherDisplay:10.37,2013-09-15 04:29:00,
2013-09-14 23:34:00,59.5,51.2,29.90,SSW,196,0.0,2.0,74,0.00,CLR,,0.00,WeatherDisplay:10.37,2013-09-15 04:34:00,
2013-09-14 23:39:00,59.3,51.0,29.90,SSW,196,1.0,3.0,74,0.00,CLR,,0.00,WeatherDisplay:10.37,2013-09-15 04:39:00,
2013-09-14 23:44:00,59.2,50.5,29.90,SSW,196,0.0,2.0,73,0.00,CLR,,0.00,WeatherDisplay:10.37,2013-09-15 04:44:00,
2013-09-14 23:49:00,59.2,50.2,29.90,SSW,196,1.0,3.0,72,0.00,CLR,,0.00,WeatherDisplay:10.37,2013-09-15 04:49:00,
2013-09-14 23:54:00,59.2,50.5,29.90,SSW,196,0.0,1.0,73,0.00,CLR,,0.00,WeatherDisplay:10.37,2013-09-15 04:54:00,